Regional Weather Roundup
Issued by NWS

Home | Current Version | Previous Version | Graphics & Text | Print | Product List | Glossary On
Versions: 1 2 3 4 5 6 7 8 9 10 11 12 13 14 15 16 17 18 19 20 21 22 23 24 25 26 27 28 29 30 31 32 33 34 35 36 37 38 39 40 41 42 43 44 45 46 47 48 49 50
000
ASUS43 KBIS 271202
RWRND

NORTH DAKOTA REGIONAL WEATHER ROUNDUP
NATIONAL WEATHER SERVICE BISMARCK ND
700 AM CDT THU JUL 27 2017

NOTE: "FAIR" INDICATES FEW OR NO CLOUDS BELOW 12,000 FEET WITH NO
SIGNIFICANT WEATHER AND/OR OBSTRUCTIONS TO VISIBILITY.


NDZ001>003-009>011-017-271300-
NORTHWEST NORTH DAKOTA

CITY           SKY/WX    TMP DP  RH WIND       PRES   REMARKS
WILLISTON      LGT RAIN  69  58  67 SE16      30.10S
6HR MIN TEMP:  66; 6HR MAX TEMP:  75; 6HR PCP:  0.13;

MINOT          CLOUDY    69  58  67 S13G21    30.11F
MINOT AFB      CLOUDY    63  57  83 SE6       30.10F
$$

NDZ018>021-031>035-040>046-271300-
SOUTHWEST NORTH DAKOTA

CITY           SKY/WX    TMP DP  RH WIND       PRES   REMARKS
BISMARCK       CLOUDY    67  58  72 N10       30.19R
6HR MIN TEMP:  62; 6HR MAX TEMP:  67;

DICKINSON      CLEAR     60  55  83 NE14      30.11R
GARRISON         N/A     62  62 100 E7        30.17F
6HR MIN TEMP:  62; 6HR MAX TEMP:  68; 6HR PCP:  0.51;

HETTINGER ARPT CLEAR     59  52  77 E7        30.13R
$$

NDZ004>008-012>016-024-026-027-054-271300-
NORTHEAST NORTH DAKOTA

CITY           SKY/WX    TMP DP  RH WIND       PRES   REMARKS
GRAND FORKS    PTCLDY    58  57  97 CALM      30.11S
GRND FRKS AFB  CLEAR     56  55  98 CALM      30.12S
DEVILS LAKE    CLOUDY    63  60  90 SW5       30.17R
$$

NDZ022-023-025-028>030-036>039-047>053-271300-
SOUTHEAST NORTH DAKOTA

CITY           SKY/WX    TMP DP  RH WIND       PRES   REMARKS
FARGO          CLEAR     58  56  93 NW5       30.12S
6HR MIN TEMP:  54; 6HR MAX TEMP:  62;

JAMESTOWN      PTCLDY    56  54  93 CALM      30.15R
$$





USA.gov is the U.S. government's official web portal to all federal, state and local government web resources and services.